This is the latest recevied weather packets stored in our database for station/object W1SCW. If no packets are shown the sender has not sent any weather packets the latest 10 day(s).
| Time | Temp. | Humidity | Pressure | Rain* | Wind** | Luminosity | Snow |
|---|---|---|---|---|---|---|---|
| 1777321342 | 31.67° C | 68% | 1008.7 hPa | 0 mm | - | 358 W/m² | - |
| 1777321040 | 31.67° C | 68% | 1008.6 hPa | 0 mm | - | 360 W/m² | - |
| 1777320737 | 31.67° C | 68% | 1008.9 hPa | 0 mm | - | 322 W/m² | - |
| 1777320434 | 31.67° C | 69% | 1008.8 hPa | 0 mm | - | 669 W/m² | - |
| 1777320131 | 31.67° C | 68% | 1009 hPa | 0 mm | - | 454 W/m² | - |
| 1777319828 | 32.22° C | 68% | 1008.8 hPa | 0 mm | - | 448 W/m² | - |
| 1777319524 | 31.67° C | 69% | 1009 hPa | 0 mm | - | 739 W/m² | - |
| 1777319221 | 31.67° C | 69% | 1009 hPa | 0 mm | - | 645 W/m² | - |
| 1777318918 | 31.11° C | 70% | 1009.1 hPa | 0 mm | - | 570 W/m² | - |
| 1777318615 | 31.11° C | 70% | 1008.9 hPa | 0 mm | - | 322 W/m² | - |
| 1777318311 | 31.67° C | 69% | 1009 hPa | 0 mm | - | 507 W/m² | - |
| 1777318008 | 31.67° C | 68% | 1009.1 hPa | 0 mm | - | 424 W/m² | - |
| 1777317705 | 31.11° C | 69% | 1009 hPa | 0 mm | - | 306 W/m² | - |
| 1777317403 | 31.67° C | 69% | 1009 hPa | 0 mm | - | 337 W/m² | - |
| 1777317098 | 31.11° C | 70% | 1009.2 hPa | 0 mm | - | 469 W/m² | - |
| 1777316796 | 31.11° C | 69% | 1009.1 hPa | 0 mm | - | 295 W/m² | - |
| 1777316492 | 31.67° C | 68% | 1009.1 hPa | 0 mm | - | 330 W/m² | - |
| 1777316189 | 31.67° C | 70% | 1009.2 hPa | 0 mm | - | 371 W/m² | - |
| 1777315887 | 31.11° C | 70% | 1009.1 hPa | 0 mm | - | 423 W/m² | - |
| 1777315585 | 31.11° C | 70% | 1009.3 hPa | 0 mm | - | 425 W/m² | - |
| 1777315283 | 31.67° C | 68% | 1009.1 hPa | 0 mm | - | 334 W/m² | - |
| 1777314980 | 31.11° C | 70% | 1009.3 hPa | 0 mm | - | 318 W/m² | - |
| 1777314675 | 31.11° C | 71% | 1009.3 hPa | 0 mm | - | 345 W/m² | - |
| 1777314372 | 31.11° C | 70% | 1009.4 hPa | 0 mm | - | 872 W/m² | - |
| 1777314070 | 31.11° C | 72% | 1009.3 hPa | 0 mm | - | 492 W/m² | - |
* Rain latest hour (hover to see other rain measurements)
** Current wind speed in m/s (hover to see current wind gust speed)